{"data":{"norad_id":89494,"epoch":"2026-09-18T11:24:20.475072Z","epoch_age_seconds":193101,"freshness":"STALE","line1":"1 89494U          26261.47523698  .00001443  00000+0  71141-3 0  9993","line2":"2 89494  99.0102 339.0554 0079216 325.6895  33.9177 14.17535131503413","mean_motion":14.17535131,"eccentricity":0.0079216,"inclination_deg":99.0102,"raan_deg":339.0554,"arg_perigee_deg":325.6895,"mean_anomaly_deg":33.9177,"bstar":0.00071141,"rev_number":50341,"period_min":101.58478393295,"perigee_km":776.57156390904,"apogee_km":890.83015347184,"semimajor_km":7211.8378586904,"source":"CELESTRAK","updated_at":"2026-09-20T09:00:32.486188Z"}}